To NAV CANADA Home Page Login to a new session Search on AWWS site Feedback and Comments Disclaimer Vers la page française équivalente Tips FAQ What's new on the site To the Forecasts and Observations / NOTAM section To "File a Flight Plan" website Publications and other links Update of the User's profile FIC Telephone Numbers My Weather Data Folder Route Weather Data Regional Weather Data Local Weather Data To the Forecasts and Observations / NOTAM section
Request Generated 03/28/2017 at 02:17:17 UTC . Weather information available at that time is displayed.

METAR/TAF

NAUJAAT/NU    

LWIS CYUT 280200Z AUTO 00000KT M25/M28 A3039=
LWIS CYUT 280100Z AUTO 06002KT M24/M27 A3039=
LWIS CYUT 280000Z AUTO 35003KT M23/M26 A3039=

*** REMARK        : Forecast period has ended; this was the last TAF issued
*** REMARQUE : La période de prévision est échue; ceci était le dernier TAF qui a été émis
TAF CYUT 271838Z 2719/2722 35010KT P6SM SKC
RMK NXT FCST WILL BE ISSUED AT 281345Z=
Your time UTC time
Weather data provided by Environment Canada and NAV CANADA